Location: Cottbus
(51.7000°N, 14.3000°E)
Time: 20:53:49
(UTC+01:00)

ISS - Pass Details

Date: 26 January 2019
Orbit: 403 x 411 km, 51.6° (Epoch: 22 February)

Event Time Altitude Azimuth Distance (km) Brightness Sun altitude
Rises 17:36:13 0° 211° (SSW) 2,323 0.9 -8.7°
Reaches altitude 10° 17:38:37 10° 194° (SSW) 1,468 -0.5 -9.1°
Maximum altitude 17:41:07 20° 145° (SE) 1,008 -2.0 -9.4°
Enters shadow 17:43:19 12° 99° (E) 1,379 -1.7 -9.7°
